This is the latest recevied weather packets stored in our database for station/object KC0SIQ-13. If no packets are shown the sender has not sent any weather packets the latest 1 day(s).
| Time | Temp. | Humidity | Pressure | Rain* | Wind** | Luminosity | Snow |
|---|---|---|---|---|---|---|---|
| 1778009092 | 0.56° C | 99% | 1012.6 hPa | 0 mm | 0 m/s | 81 W/m² | - |
| 1778008788 | 1.11° C | 99% | 1012.4 hPa | 0 mm | 0 m/s | 94 W/m² | - |
| 1778008487 | 0.56° C | 99% | 1012.5 hPa | 1.27 mm | 0.45 m/s, 95° | 91 W/m² | - |
| 1778008184 | 0.56° C | 99% | 1012.5 hPa | 1.27 mm | 0 m/s | 89 W/m² | - |
| 1778007879 | 1.11° C | 99% | 1012.5 hPa | 0 mm | 0 m/s | 104 W/m² | - |
| 1778007575 | 1.11° C | 99% | 1012.8 hPa | 1.78 mm | 0 m/s | 106 W/m² | - |
| 1778007272 | 1.67° C | 99% | 1012.8 hPa | 1.78 mm | 0 m/s | 89 W/m² | - |
| 1778006968 | 1.67° C | 99% | 1013 hPa | 1.78 mm | 0 m/s | 119 W/m² | - |
| 1778006665 | 2.78° C | 99% | 1013 hPa | 1.78 mm | 0.45 m/s, 213° | 76 W/m² | - |
| 1778006362 | 2.78° C | 99% | 1012.4 hPa | 1.27 mm | 0 m/s | 103 W/m² | - |
| 1778006059 | 2.78° C | 99% | 1012.1 hPa | 1.27 mm | 0.45 m/s, 278° | 129 W/m² | - |
| 1778005756 | 2.78° C | 99% | 1012.3 hPa | 1.78 mm | 0 m/s | 132 W/m² | - |
| 1778005452 | 2.78° C | 99% | 1012.4 hPa | 3.05 mm | 0.45 m/s, 299° | 132 W/m² | - |
| 1778005149 | 3.33° C | 99% | 1012.4 hPa | 1.27 mm | 0 m/s | 124 W/m² | - |
| 1778004846 | 2.78° C | 99% | 1012.1 hPa | 1.78 mm | 0 m/s | 126 W/m² | - |
| 1778004543 | 2.78° C | 99% | 1012.5 hPa | 3.05 mm | 0 m/s | 134 W/m² | - |
| 1778004239 | 2.78° C | 99% | 1012.7 hPa | 3.05 mm | 0 m/s | 155 W/m² | - |
| 1778003936 | 2.78° C | 99% | 1012.7 hPa | 1.78 mm | 0.45 m/s, 275° | 120 W/m² | - |
| 1778003632 | 2.78° C | 99% | 1012.3 hPa | 1.27 mm | 0 m/s | 85 W/m² | - |
| 1778003329 | 2.78° C | 99% | 1012.5 hPa | 1.27 mm | 0 m/s | 83 W/m² | - |
| 1778003027 | 2.78° C | 99% | 1012.6 hPa | 0 mm | 0 m/s | 80 W/m² | - |
| 1778002722 | 2.78° C | 99% | 1012.6 hPa | 1.78 mm | 0 m/s | 62 W/m² | - |
| 1778002419 | 2.78° C | 99% | 1012.4 hPa | 1.78 mm | 0 m/s | 86 W/m² | - |
| 1778002116 | 2.78° C | 99% | 1012.7 hPa | 1.27 mm | 0 m/s | 114 W/m² | - |
| 1778001814 | 2.22° C | 99% | 1012.8 hPa | 1.27 mm | 0 m/s | 89 W/m² | - |
* Rain latest hour (hover to see other rain measurements)
** Current wind speed in m/s (hover to see current wind gust speed)